Location: İstanbul
(41.0082°N, 28.9784°E)
Time: 15:11:48
(UTC+03:00)

AO-7 - Visible Passes

Search period start: 24 April 2024 00:00
Search period end: 04 May 2024 00:00
Orbit: 1439 x 1458 km, 102.0° (Epoch: 23 April)

Date Brightness Start Highest point End Pass type
(mag) Time Alt. Az. Time Alt. Az. Time Alt. Az.
25 Apr ? 05:15:46 10° NE 05:22:26 26° E 05:29:01 10° SSE visible
27 Apr ? 05:08:57 10° NE 05:15:14 23° E 05:21:28 10° SE visible
29 Apr ? 05:02:12 10° NE 05:08:03 21° E 05:13:49 10° SE visible
01 May ? 04:55:31 10° NE 05:00:49 18° E 05:06:05 10° SE visible
03 May ? 04:48:56 10° NE 04:53:36 16° E 04:58:14 10° SE visible
